[Date Prev][Date Next][Thread Prev][Thread Next] - [Date Index][Thread Index][Author Index]

2 Line ISS Keps 6-9



ISS
1 25544U 98067A   04161.44402032  .00014848  00000-0  13151-3 0  9574
2 25544  51.6327   5.2116 0005493 211.0249 226.7009 15.68846425317108


----
Via the sarex mailing list at AMSAT.ORG courtesy of AMSAT-NA.
To unsubscribe, send "unsubscribe sarex" to Majordomo@amsat.org



AMSAT Top AMSAT Home